EHI
0 0 0 0 0 0 0 0 0 0 0 0 0 0 0 0 0 0 0 0 0 0 0 0 0 0 0 0 0 0 0 0 0 0 0 0 0 0 0 0 0 0 0 0
0 0 0 0 0 0 0 0 0 0 0 0 0 0 0 0 0 0 0 0 0 0 0 0 0 0 0 0 0 0 0 0 0 0 0 0 0 0 0 0 0 0 0 0
0 0 0 0 0 0 0 0 0 0 0 0 0 0 0 0 0 0 0 0 0 0 0 0 0 0 0 0 0 0 0 0 0 0 0 0 0 0 0 0 0 0 0 0
0 0 0 0 0 0 0 0 0 0 0 0 0 0 0 0 0 0 0 0 0 0 0 0 0 0 0 0 0 0 0 0 0 0 0 0 0 0 0 0 0 0 0 0
0 0 0 0 0 0 0 0 0 0 0 0 0 0 0 0 0 0 0 0 0 0 0 0 0 0 0 0 0 0 0 0 0 0 0 0 0 0 0 0 0 0 0 0
0 0 0 0 0 0 0 0 0 0 0 0 0 0 0 0 0 0 0 0 0 0 0 0 0 0 0 0 0 0 0 0 0 0 0 0 0 0 0 0 0 0 0 0
0 0 0 0 0 0 0 0 0 0 0 0 0 0 0 0 0 0 0 0 0 0 0 0 0 0 0 0 0 0 0 0 0 0 0 0 0 0 0 0 0 0 0 0
0 0 0 0 0 0 0 0 0 0 0 0 0 0 0 0 0 0 0 0 0 0 0 0 0 0 0 0 0 0 0 0 0 0 0 0 0 0 0 0 0 0 0 0
0 0 0 0 0 0 0 0 0 0 0 0 0 0 0 0 0 0 0 0 0 0 0 0 0 0 0 0 0 0 0 0 0 0 0 0 0 0 0 0 0 0 0 0
0 0 0 0 0 0 0 0 0 0 0 0 0 0 0 0 0 0 0 0 0 0 0 0 0 0 0 0 0 0 0 0 0 0 0 0 0 0 0 0 0 0 0 0
0 0 0 0 0 0 0 0 0 0 0 0 0 0 0 0 0 0 0 0 0 0 0 0 0 0 0 0 0 0 0 0 0 0 0 0 0 0 0 0 0 0 0 0
0 0 0 0 0 0 0 0 0 0 0 0 0 0 0 0 0 0 0 0 0 0 0 0 0 0 0 0 0 0 0 0 0 0 0 0 0 0 0 0 0 0 0 0
0 0 0 0 0 0 0 0 0 0 0 0 0 0 0 0 0 0 0 0 0 0 0 0 0 0 0 0 0 0 0 0 0 0 0 0 0 0 0 0 0 0 0 0
0 0 0 0 0 0 0 0 0 0 0 0 0 0 0 0 0 0 0 0 0 0 0 0 0 0 0 0 0 0 0 0 0 0 0 0 0 0 0 0 0 0 0 0
0 0 0 0 0 0 0 0 0 0 0 0 0 0 0 0 0 0 0 0 0 0 0 0 0 0 0 0 0 0 0 0 0 0 0 0 0 0 0 0 0 0 0 0
0 0 0 0 0 0 0 0 0 0 0 0 0 0 0 0 0 0 0 0 0 0 0 0 0 0 0 0 0 0 0 0 0 0 0 0 0 0 0 0 0 0 0 0
0 0 0 0 0 0 0 0 0 0 0 0 0 0 0 0 0 0 0 0 0 0 0 0 0 0 0 0 0 0 0 0 0 0 0 0 0 0 0 0 0 0 0 0
0 0 0 0 0 0 0 0 0 0 0 0 0 0 0 0 0 0 0 0 0 0 0 0 0 0 0 0 0 0 0 0 0 0 0 0 0 0 0 0 0 0 0 0
0 0 0 0 0 0 0 0 0 0 0 0 0 0 0 0 0 0 0 0 0 0 0 0 0 0 0 0 0 0 0 0 0 0 0 0 0 0 0 0 0 0 0 0
0 0 0 0 0 0 0 0 0 0 0 0 0 0 0 0 0 0 0 0 0 0 0 0 0 0 0 0 0 0 0 0 0 0 0 0 0 0 0 0 0 0 0 0
0 0 0 0 0 0 0 0 0 0 0 0 0 0 0 0 0 0 0 0 0 0 0 0 0 0 0 0 0 0 0 0 0 0 0 0 0 0 0 0 0 0 0 0
0 0 0 0 0 0 0 0 0 0 0 0 0 0 0 0 0 0 0 0 0 0 0 0 0 0 0 0 0 0 0 0 0 0 0 0 0 0 0 0 0 0 0 0
0 0 0 0 0 0 0 0 0 0 0 0 0 0 0 0 0 0 0 0 0 0 0 0 0 0 0 0 0 0 0 0 0 0 0 0 0 0 0 0 0 0 0 0
0 0 0 0 0 0 0 0 0 0 0 0 0 0 0 0 0 0 0 0 0 0 0 0 0 0 0 0 0 0 0 0 0 0 0 0 0 0 0 0 0 0 0 0
0 0 0 0 0 0 0 0 0 0 0 0 0 0 0 0 0 0 0 0 0 0 0 0 0 0 0 0 0 0 0 0 0 0 0 0 0 0 0 0 0 0 0 0
0 0 0 0 0 0 0 0 0 0 0 0 0 0 0 0 0 0 0 0 0 0 0 0 0 0 0 0 0 0 0 0 0 0 0 0 0 0 0 0 0 0 0 0
Wind_Speed
8 8 14 17 15 7 7 7 7 6 4 7 9 12 12 8 6 9 9 9 10 13 12 9 9 10 10 11 13 15 16 15 13 11 11 10 10 9 8 8 9 10 9 10
7 17 15 10 11 9 7 7 6 4 3 5 6 11 11 9 9 10 11 12 12 11 9 8 8 9 12 14 15 16 16 16 16 13 12 9 8 6 6 6 8 10 10 10
18 9 12 11 12 14 12 11 8 5 1 1 2 8 8 8 7 8 9 10 10 12 12 10 9 10 11 14 16 15 17 16 17 13 8 6 5 4 5 7 8 9 10 10
15 10 12 14 15 15 16 10 8 5 2 4 2 7 8 7 7 9 11 10 11 11 11 9 9 9 12 14 13 14 15 15 15 14 13 14 11 11 11 8 8 8 10 10
12 13 15 18 17 14 7 8 8 6 4 4 3 5 9 5 9 11 11 12 11 11 10 10 10 10 11 11 11 12 12 13 14 15 16 16 12 9 6 6 8 9 8 9
9 8 12 12 10 12 7 6 3 2 2 11 11 8 10 8 11 9 9 9 10 9 8 8 7 6 6 7 8 9 11 13 14 16 16 16 14 11 10 9 10 8 6 7
9 8 8 7 9 10 10 8 5 6 8 11 7 10 13 10 10 11 10 10 8 7 6 6 6 6 7 8 9 10 12 12 13 15 15 16 14 14 14 12 11 10 7 7
12 11 12 10 12 11 14 13 10 9 8 5 6 12 11 9 8 8 9 8 6 7 6 7 7 7 7 9 9 10 12 11 13 14 14 13 12 10 9 10 10 11 9 9
10 9 7 9 7 13 12 13 8 4 2 3 7 8 10 6 7 8 8 8 9 8 8 7 6 6 7 8 9 11 12 11 12 13 12 11 12 11 10 10 9 8 7 7
4 5 5 6 6 8 10 10 7 8 8 7 6 7 7 6 10 10 9 10 10 8 7 6 6 6 5 6 6 7 9 10 10 11 11 9 11 11 10 9 10 9 9 8
2 4 4 7 12 14 10 11 8 7 6 8 6 9 9 12 12 12 13 11 9 9 8 7 5 4 4 4 5 6 7 7 8 10 10 9 10 10 9 9 10 10 9 9
2 3 5 8 5 8 8 12 11 10 8 7 5 9 6 8 7 7 9 8 7 7 6 5 4 4 4 5 5 6 7 7 8 8 9 9 9 9 9 9 9 9 9 9
1 3 4 4 4 5 8 8 11 7 4 6 7 9 3 4 5 6 7 6 5 5 5 4 4 4 5 5 5 6 6 7 7 8 8 9 9 9 10 9 8 8 9 8
2 3 6 10 6 6 8 10 12 11 9 9 12 9 5 4 5 5 5 5 5 5 5 5 4 5 5 5 5 5 6 6 7 7 8 9 9 9 9 8 8 8 8 8
0 4 5 7 6 7 9 13 14 16 15 14 15 15 11 8 7 6 4 4 4 4 5 7 6 6 5 5 5 6 6 6 7 8 8 8 7 7 7 7 7 7 7 8
3 4 4 7 6 7 9 14 19 19 18 16 12 16 11 8 5 4 5 6 6 7 7 7 7 7 7 7 7 7 6 6 7 8 8 7 7 7 7 7 7 7 7 6
4 3 3 5 5 4 13 17 19 17 18 19 22 20 5 8 11 11 10 9 10 10 9 9 9 9 9 8 8 8 7 7 7 7 7 7 7 7 7 7 7 7 7 6
7 5 3 3 2 10 9 7 12 16 18 16 15 9 10 11 11 10 10 11 11 9 9 9 8 7 6 6 6 7 7 8 8 7 7 7 8 7 7 7 7 6 5 6
12 9 4 4 5 8 9 5 11 14 18 16 16 12 8 4 3 8 9 10 11 11 10 9 8 7 6 7 8 9 8 8 8 8 8 8 8 8 8 7 7 5 5 5
12 9 6 5 6 10 8 4 4 7 14 11 13 14 9 7 8 14 9 10 10 8 6 6 6 5 7 7 9 10 9 9 9 8 8 7 8 8 8 7 6 5 5 5
8 9 11 7 7 10 8 3 6 10 11 6 10 12 11 15 17 10 6 9 9 7 6 6 7 7 7 9 10 10 9 9 8 7 7 7 7 7 7 6 5 5 5 5
8 8 10 8 9 12 4 4 8 6 5 4 7 9 10 13 12 6 7 8 8 6 6 7 7 6 6 9 11 10 9 7 7 8 8 7 6 6 6 7 6 5 6 6
7 7 5 9 10 6 3 5 6 3 4 4 4 6 7 8 8 7 7 7 7 7 7 6 8 8 6 7 9 11 8 9 9 9 8 7 7 6 6 7 7 5 5 4
5 3 4 7 9 9 9 8 7 5 6 7 6 5 5 6 6 6 6 6 6 7 7 7 9 9 7 6 7 8 9 10 10 10 8 7 7 6 5 5 5 5 5 4
7 4 6 10 9 9 10 9 8 8 7 7 6 5 5 5 5 5 5 6 7 6 6 8 9 10 9 8 7 8 9 11 11 9 8 7 6 6 5 4 3 4 3 4
9 9 9 10 7 7 11 10 9 9 9 8 7 7 5 4 5 4 5 5 6 7 7 8 8 9 9 9 9 8 8 10 12 9 7 6 6 5 5 5 4 5 4 5
Wind_Direction
185 189 203 201 201 194 177 181 204 219 203 183 220 242 252 251 231 239 241 239 236 236 238 227 213 204 196 193 192 193 194 193 186 187 189 190 196 194 194 195 192 189 188 186
189 218 213 194 196 201 197 201 211 242 205 199 237 253 252 242 230 226 229 233 234 237 243 231 213 198 197 197 196 195 195 192 190 193 192 193 187 190 192 186 190 192 191 189
207 211 187 192 199 204 210 206 202 207 321 275 283 282 259 254 233 237 233 232 232 229 233 230 215 207 201 201 198 196 196 193 193 187 176 162 149 148 174 189 194 196 193 191
218 212 188 196 207 197 222 205 188 194 204 262 213 274 269 249 256 245 241 237 236 234 232 228 216 209 204 205 198 196 194 193 190 182 180 179 186 192 195 189 191 189 191 191
212 192 194 206 207 192 205 176 185 196 211 264 235 251 270 248 250 248 240 237 236 233 227 224 217 210 205 198 192 193 189 190 187 185 187 188 194 196 177 169 179 186 190 192
223 204 197 206 200 188 157 121 116 134 187 245 223 219 264 222 221 236 237 234 233 231 225 224 216 199 194 186 185 183 184 188 186 187 189 192 193 182 171 177 184 188 187 190
214 218 209 180 168 178 169 149 169 193 209 237 193 213 246 226 218 220 231 238 235 227 220 219 208 195 190 185 185 182 184 188 186 188 191 195 193 186 186 185 187 185 185 192
200 209 197 189 186 179 187 179 184 191 203 231 190 226 246 235 234 235 238 241 236 226 220 220 214 201 195 190 184 183 187 188 185 188 193 193 190 190 193 189 186 190 194 195
199 221 191 195 179 163 178 198 188 163 164 212 232 258 289 254 249 242 239 235 232 226 219 218 212 199 193 188 188 187 187 186 187 189 189 189 189 190 191 188 186 189 189 183
183 213 210 186 154 188 176 161 162 183 182 220 248 238 234 225 224 226 226 227 228 221 217 213 207 201 194 189 186 184 186 187 185 185 187 189 190 192 189 184 188 188 184 178
199 187 198 183 187 183 167 180 178 177 189 185 224 249 218 207 207 212 221 222 216 211 210 207 205 196 181 170 170 176 180 178 179 183 184 184 188 187 184 188 191 188 183 180
220 192 209 215 223 188 178 182 177 187 204 191 199 258 244 215 223 219 228 226 216 211 205 196 189 175 172 175 175 177 178 179 181 179 179 185 183 181 185 190 188 184 183 183
302 204 191 203 211 189 198 192 191 186 165 181 196 251 262 213 230 229 229 225 213 199 190 187 182 184 188 185 181 180 179 179 174 171 175 179 180 183 189 189 183 180 180 178
311 236 217 214 209 185 207 211 201 189 203 211 220 231 250 235 229 231 224 215 202 198 193 192 197 200 198 190 184 182 181 175 169 170 175 182 185 185 186 183 178 178 177 176
215 258 260 267 260 208 223 216 211 213 212 212 224 226 227 231 228 228 217 198 195 210 208 204 204 203 197 191 186 182 180 173 167 170 178 184 177 174 173 173 172 171 173 176
182 250 281 269 254 239 241 224 216 221 219 225 231 239 226 225 222 226 216 203 211 217 218 214 207 202 200 196 189 181 179 174 166 172 178 171 165 166 168 168 165 163 166 167
202 205 244 265 286 271 239 218 211 217 219 216 226 233 192 207 215 218 215 210 217 221 215 210 207 205 203 195 184 182 175 163 165 171 168 165 165 166 167 161 159 165 167 162
211 201 220 248 244 229 238 210 210 223 229 221 230 229 199 213 222 221 206 204 217 220 216 215 208 204 197 180 170 160 154 159 164 166 166 164 162 162 158 156 162 164 160 163
209 199 200 206 235 264 277 231 198 209 234 223 229 234 220 211 239 247 221 208 214 215 212 211 200 191 176 170 161 149 151 155 161 169 170 167 162 158 156 161 164 160 155 158
201 196 199 203 219 235 245 235 211 193 247 230 221 229 213 164 222 244 215 207 218 216 205 195 176 161 165 165 151 149 155 160 172 175 168 160 157 157 160 162 156 149 150 152
182 193 206 211 230 255 259 248 145 186 240 237 212 222 208 204 225 241 197 203 206 204 199 177 163 165 170 157 149 151 156 173 172 153 144 145 149 151 150 143 140 139 134 131
191 192 199 201 222 243 240 158 184 228 273 253 217 217 217 228 238 231 204 200 192 189 181 164 157 159 153 153 150 152 165 160 140 136 136 139 140 138 134 133 131 133 135 135
208 207 205 209 227 259 226 225 248 264 271 270 250 250 229 233 235 226 213 198 188 179 170 159 152 145 145 155 156 156 157 142 135 132 134 133 127 126 133 137 137 135 137 140
245 224 229 251 256 270 274 275 284 287 278 279 269 257 230 233 233 225 209 194 182 172 164 153 145 144 151 154 151 147 141 138 134 134 134 133 130 126 122 126 136 142 150 149
238 224 238 252 266 277 270 263 271 286 294 297 291 270 238 225 236 214 201 190 177 165 155 151 152 152 152 144 138 137 139 136 132 131 132 131 129 132 125 117 125 140 157 165
222 219 227 245 243 249 269 273 275 275 276 276 281 288 277 228 218 200 188 178 162 154 145 142 141 141 141 138 136 138 140 138 135 133 134 134 132 129 128 122 97 82 106 121